Stations météo

réclame
Mon MeteoGroup
Lulea/Kallax, Suède (2186): Température de l'air & dewpoint: 11.10.2019 10:00:00 - 17.10.2019 10:00:00 (CEST)Lulea/Kallax, Suède (2186): Vitesse du vent & gusts: 11.10.2019 10:00:00 - 17.10.2019 10:00:00 (CEST)Lulea/Kallax, Suède (2186): Direction du vent: 11.10.2019 10:00:00 - 17.10.2019 10:00:00 (CEST)Lulea/Kallax, Suède (2186): reduced air pressure: 11.10.2019 10:00:00 - 17.10.2019 10:00:00 (CEST)Lulea/Kallax, Suède (2186): visibility: 11.10.2019 10:00:00 - 17.10.2019 10:00:00 (CEST)Lulea/Kallax, Suède (2186): Quantités de précipitations: 11.10.2019 10:00:00 - 17.10.2019 10:00:00 (CEST)
Date & Time tt [°C] td [°C] ff [km/h] ff [knt] fx [km/h] fx [knt] dd ppp [hPa] vv [km] rr [mm]
17.10.2019 10:00:00 -2,2 -3,1 9 5 18 10 N 1018,7 10 0,0
17.10.2019 09:00:00 -2,6 -3,3 9 5 18 10 N 1018,9 10 0,0
17.10.2019 08:00:00 -2,9 -3,6 11 6 22 12 N 1018,8 10 0,0
17.10.2019 07:00:00 -3,0 -3,7 11 6 22 12 N 1018,8 10 0,0
17.10.2019 06:00:00 -2,9 -3,6 15 8 22 12 N 1019,1 10 0,0
17.10.2019 05:00:00 -3,0 -3,5 15 8 25 14 N 1019,1 10 0,0
17.10.2019 04:00:00 -2,9 -3,4 13 7 25 14 N 1019,3 10 0,0
17.10.2019 03:00:00 -2,8 -3,2 15 8 25 14 N 1019,4 10 0,0
17.10.2019 02:00:00 -2,7 -3,1 13 7 22 12 N 1019,8 5 0,0
17.10.2019 01:00:00 -2,7 -3,2 9 5 18 10 NNW 1020,0 10 0,0
17.10.2019 00:00:00 -2,4 -2,8 13 7 18 10 NNW 1020,1 10 0,0
16.10.2019 23:00:00 -2,4 -2,8 9 5 14 8 NW 1020,0 10 0,0
16.10.2019 22:00:00 -2,3 -2,7 5 3 11 6 NW 1019,9 6 0,0
16.10.2019 21:00:00 -2,2 -2,6 8 4 14 8 N 1019,9 8 0,0
16.10.2019 20:00:00 -2,3 -2,9 9 5 14 8 NNW 1019,7 3,0 0,0
16.10.2019 19:00:00 -2,4 -3,0 8 4 11 6 N 1019,7 10 0,0
16.10.2019 18:00:00 -2,6 -3,0 5 3 14 8 N 1019,8 10 0,0
16.10.2019 17:00:00 -2,7 -3,1 8 4 18 10 N 1019,6 10 0,0
16.10.2019 16:00:00 -2,6 -3,0 8 4 14 8 N 1019,8 10 0,0
16.10.2019 15:00:00 -2,5 -2,9 7 4 14 8 N 1019,9 15 0,0
16.10.2019 14:00:00 -2,7 -3,1 7 4 14 8 N 1019,9 12 0,0
16.10.2019 13:00:00 -2,9 -3,3 9 5 14 8 NNW 1020,1 10 0,0
16.10.2019 12:00:00 -3,0 -3,4 7 4 14 8 NNW 1020,1 - 0,0
16.10.2019 11:00:00 -3,1 -3,5 8 4 14 8 NNW 1020,1 7 0,0
16.10.2019 10:00:00 -3,9 -4,4 4 2 11 6 - 1020,0 3,0 0,0
16.10.2019 09:00:00 -4,5 -5,0 7 4 11 6 NNW 1019,9 - 0,0
16.10.2019 08:00:00 -5,3 -5,8 4 2 14 8 N 1019,7 0,8 0,0
16.10.2019 07:00:00 -5,4 -5,9 11 6 14 8 NNW 1019,2 - 0,0
16.10.2019 06:00:00 -4,6 -5,1 7 4 18 10 NW 1019,1 - 0,0
16.10.2019 05:00:00 -4,1 -4,6 15 8 18 10 NW 1019,0 1,3 0,0
16.10.2019 04:00:00 -3,3 -3,7 11 6 14 8 NW 1019,0 1,0 0,0
16.10.2019 03:00:00 -3,5 -4,0 13 7 18 10 NW 1018,9 1,3 0,0
16.10.2019 02:00:00 -3,5 -3,9 15 8 18 10 NW 1018,8 0,3 0,0
16.10.2019 01:00:00 -3,1 -3,6 8 4 14 8 NW 1018,7 10 0,0
16.10.2019 00:00:00 -3,3 -3,8 5 3 11 6 WNW 1018,8 10 0,0
15.10.2019 23:00:00 -2,5 -3,6 9 5 11 6 WNW 1018,5 10 0,0
15.10.2019 22:00:00 -1,8 -2,5 9 5 18 10 W 1018,6 10 0,0
15.10.2019 21:00:00 -0,5 -1,1 8 4 14 8 SW 1018,3 3,5 0,0
15.10.2019 20:00:00 0,7 0,0 4 2 11 6 - 1018,1 10 0,0
15.10.2019 19:00:00 0,8 -0,7 5 3 11 6 W 1018,2 10 0,0
15.10.2019 18:00:00 1,1 -0,5 5 3 7 4 SW 1018,3 10 0,0
15.10.2019 17:00:00 0,8 -1,4 2 1 14 8 - 1018,3 10 0,0
15.10.2019 16:00:00 0,9 -2,7 5 3 14 8 S 1018,6 10 0,0
15.10.2019 15:00:00 0,9 -2,7 5 3 11 6 WSW 1018,8 10 0,0
15.10.2019 14:00:00 0,5 -2,5 8 4 22 12 SSW 1018,7 10 0,0
15.10.2019 13:00:00 -0,5 -2,9 11 6 18 10 WSW 1018,8 10 0,0
15.10.2019 12:00:00 -0,3 -2,4 8 4 11 6 SW 1018,7 10 0,0
15.10.2019 11:00:00 -0,1 -2,5 2 1 4 2 - 1018,4 10 0,0
15.10.2019 10:00:00 -2,5 -3,8 2 1 7 4 - 1018,4 10 0,0
15.10.2019 09:00:00 -5,5 -6,6 2 1 4 2 WNW 1018,1 10 0,0
15.10.2019 08:00:00 -6,6 -7,5 0 0 4 2 N 1017,5 10 0,0
15.10.2019 07:00:00 -6,5 -7,3 4 2 4 2 N 1017,0 10 0,0
15.10.2019 06:00:00 -5,9 -6,6 4 2 4 2 NW 1016,9 10 0,0
15.10.2019 05:00:00 -5,9 -6,6 0 0 4 2 N 1016,9 10 0,0
15.10.2019 04:00:00 -6,0 -6,8 2 1 4 2 W 1016,7 10 0,0
15.10.2019 03:00:00 -6,0 -7,0 2 1 - - N - 10 -
15.10.2019 02:00:00 -5,6 -6,4 0 0 4 2 N 1015,7 10 0,0
15.10.2019 01:00:00 -4,9 -5,7 0 0 4 2 N 1015,3 10 0,0
15.10.2019 00:00:00 -4,6 -5,8 4 2 4 2 W 1014,9 10 0,0
14.10.2019 23:00:00 -2,7 -4,7 5 3 7 4 WNW 1014,6 10 0,0
14.10.2019 22:00:00 -1,6 -4,4 5 3 11 6 WNW 1014,3 10 0,0
14.10.2019 21:00:00 -2,0 -4,8 2 1 7 4 - 1013,8 10 0,0
14.10.2019 20:00:00 -1,7 -4,4 2 1 7 4 - 1013,2 10 0,0
14.10.2019 19:00:00 -1,2 -4,0 5 3 14 8 NW 1012,5 10 0,0
14.10.2019 18:00:00 0,3 -3,4 11 6 18 10 WNW 1012,0 10 0,0
14.10.2019 17:00:00 1,3 -3,4 11 6 18 10 NW 1011,3 10 0,0
14.10.2019 16:00:00 2,2 -2,9 15 8 25 14 NW 1010,9 10 0,0
14.10.2019 15:00:00 2,5 -2,4 21 11 25 14 NW 1010,4 10 0,0
14.10.2019 14:00:00 2,3 -2,2 21 11 25 14 NW 1010,2 10 0,0
14.10.2019 13:00:00 1,6 -2,4 18 10 25 14 NW 1010,0 10 0,0
14.10.2019 12:00:00 1,2 -2,0 21 11 25 14 NW 1009,8 10 0,0
14.10.2019 11:00:00 -0,2 -2,6 15 8 22 12 NNW 1009,7 10 0,0
14.10.2019 10:00:00 -0,3 -2,4 13 7 14 8 NW 1009,5 10 0,0
14.10.2019 09:00:00 -1,4 -2,7 5 3 7 4 WNW 1009,3 10 0,0
14.10.2019 08:00:00 -2,3 -3,6 8 4 14 8 NW 1009,0 10 0,0
14.10.2019 07:00:00 -2,3 -3,6 11 6 18 10 NW 1008,7 10 0,0
14.10.2019 06:00:00 -2,0 -2,8 13 7 14 8 NW 1008,7 10 0,0
14.10.2019 05:00:00 -3,3 -4,1 2 1 7 4 - 1008,6 10 0,0
14.10.2019 04:00:00 -2,5 -3,9 9 5 11 6 NW 1008,4 10 0,0
14.10.2019 03:00:00 -2,6 -3,9 9 5 11 6 NW 1008,4 10 0,0
14.10.2019 02:00:00 -2,8 -4,1 9 5 11 6 WNW 1008,3 10 0,0
14.10.2019 01:00:00 -1,7 -3,6 9 5 14 8 W 1008,2 10 0,0
14.10.2019 00:00:00 -0,8 -2,8 11 6 14 8 WNW 1007,7 10 0,0
13.10.2019 23:00:00 -1,1 -3,0 8 4 14 8 WNW 1007,4 10 0,0
13.10.2019 22:00:00 -1,9 -3,3 4 2 14 8 - 1007,2 10 0,0
13.10.2019 21:00:00 -2,0 -3,1 5 3 11 6 NW 1006,7 10 0,0
13.10.2019 20:00:00 -1,2 -2,9 9 5 18 10 W 1006,2 10 0,0
13.10.2019 19:00:00 -1,0 -2,7 11 6 18 10 W 1005,8 10 0,0
13.10.2019 18:00:00 -0,2 -2,4 11 6 14 8 W 1005,6 10 0,0
13.10.2019 17:00:00 1,2 -2,4 11 6 18 10 W 1004,9 10 0,0
13.10.2019 16:00:00 2,4 -2,7 15 8 22 12 WNW 1004,4 10 0,0
13.10.2019 15:00:00 2,8 -2,1 15 8 22 12 NW 1003,9 10 0,0
13.10.2019 14:00:00 2,0 -1,4 15 8 22 12 WNW 1003,4 10 0,0
13.10.2019 13:00:00 2,4 -1,2 15 8 22 12 NW 1002,7 10 0,0
13.10.2019 12:00:00 1,5 -1,1 16 9 22 12 NW 1002,3 10 0,0
13.10.2019 11:00:00 0,8 -1,1 15 8 18 10 NW 1001,6 10 0,0
13.10.2019 10:00:00 0,6 -1,0 11 6 14 8 NNW 1001,1 10 0,0
13.10.2019 09:00:00 0,2 -1,4 13 7 18 10 NNW 1000,6 10 0,0
13.10.2019 08:00:00 0,2 -1,9 11 6 18 10 NNW 1000,0 10 0,0
13.10.2019 07:00:00 0,2 -1,9 11 6 22 12 NNW 999,6 10 0,0
13.10.2019 06:00:00 0,3 -1,8 11 6 14 8 NNW 999,2 10 0,0
13.10.2019 05:00:00 0,3 -1,8 11 6 18 10 NNW 999,0 10 0,0
13.10.2019 04:00:00 0,3 -1,8 11 6 14 8 NNW 998,6 10 0,0
13.10.2019 03:00:00 0,3 -1,5 9 5 14 8 NNW 998,2 10 0,0
13.10.2019 02:00:00 -0,2 -1,5 9 5 14 8 NNW 997,9 10 0,0
13.10.2019 01:00:00 0,2 -1,7 11 6 14 8 NNW 997,7 50 0,0
13.10.2019 00:00:00 0,8 -1,8 9 5 14 8 NNW 997,5 10 0,0
12.10.2019 23:00:00 0,9 -1,8 9 5 14 8 NNW 997,2 10 0,0
12.10.2019 22:00:00 0,8 -1,4 9 5 14 8 NW 997,1 10 0,0
12.10.2019 21:00:00 0,8 -1,8 11 6 22 12 NNW 996,6 10 0,0
12.10.2019 20:00:00 1,2 -1,5 13 7 22 12 NNW 996,2 10 0,0
12.10.2019 19:00:00 1,1 -1,5 11 6 22 12 NNW 996,0 10 0,0
12.10.2019 18:00:00 1,4 -1,7 13 7 25 14 N 995,7 10 0,0
12.10.2019 17:00:00 1,5 -1,2 13 7 25 14 N 995,2 10 0,0
12.10.2019 16:00:00 1,5 -1,1 15 8 29 16 N 995,0 10 0,0
12.10.2019 15:00:00 1,1 -1,1 16 9 29 16 N 994,8 10 0,0
12.10.2019 14:00:00 1,0 -1,4 21 11 29 16 N 994,3 10 0,0
12.10.2019 13:00:00 -0,1 -1,5 18 10 29 16 N 994,1 10 0,0
12.10.2019 12:00:00 -0,4 -1,1 11 6 25 14 N 994,1 8 0,0
12.10.2019 11:00:00 -0,9 -1,7 13 7 29 16 N 994,0 10 0,0
12.10.2019 10:00:00 -1,2 -2,0 16 9 25 14 N 993,8 10 0,0
12.10.2019 09:00:00 -1,2 -2,2 13 7 25 14 N 993,5 10 0,0
12.10.2019 08:00:00 -1,0 -2,3 13 7 25 14 N 993,1 10 0,0
12.10.2019 07:00:00 -0,9 -1,7 9 5 22 12 NNE 993,2 10 0,0
12.10.2019 06:00:00 -0,8 -1,9 11 6 22 12 N 993,3 50 0,0
12.10.2019 05:00:00 -0,9 -2,0 9 5 22 12 N 993,6 10 0,0
12.10.2019 04:00:00 -0,9 -1,9 9 5 22 12 N 993,8 10 0,0
12.10.2019 03:00:00 0,0 -1,3 13 7 22 12 N 994,2 10 0,0
12.10.2019 02:00:00 0,6 -0,7 13 7 22 12 NNW 994,3 10 0,0
12.10.2019 01:00:00 0,6 -0,5 13 7 25 14 N 994,5 10 0,0
12.10.2019 00:00:00 0,7 -0,5 9 5 22 12 N 994,5 10 0,0
11.10.2019 23:00:00 1,0 -0,2 8 4 18 10 NNE 994,5 10 0,0
11.10.2019 22:00:00 1,2 0,2 9 5 22 12 N 994,4 10 0,0
11.10.2019 21:00:00 1,4 0,5 8 4 18 10 N 994,3 10 0,0
11.10.2019 20:00:00 1,6 0,9 11 6 18 10 N 994,3 10 0,0
11.10.2019 19:00:00 2,2 1,3 9 5 14 8 N 994,4 10 0,0
11.10.2019 18:00:00 2,5 1,0 9 5 18 10 N 994,3 10 0,0
11.10.2019 17:00:00 2,6 1,4 11 6 18 10 N 994,2 10 0,0
11.10.2019 16:00:00 2,8 1,5 11 6 22 12 N 994,3 10 0,0
11.10.2019 15:00:00 2,8 1,6 9 5 22 12 N 994,3 10 0,0
11.10.2019 14:00:00 3,0 2,1 11 6 18 10 N 994,2 10 0,0
11.10.2019 13:00:00 2,9 2,0 9 5 22 12 N 994,0 10 0,0
11.10.2019 12:00:00 2,5 1,8 9 5 18 10 N 994,0 10 0,0
11.10.2019 11:00:00 2,3 1,6 11 6 18 10 N 993,7 10 0,0
11.10.2019 10:00:00 2,2 1,6 9 5 18 10 NNE 993,5 10 0,2

tt = Température de l'air
td = dewpoint
ff = Vitesse du vent
fx = gusts
dd = Direction du vent
ppp = reduced air pressure
vv = visibility
rr = Quantités de précipitations

stations d'obs. à proximité